| time (UTC) | temp F | wind direction | speed MPH | gust MPH | rain 1hr in | rain 24hr in | rain mn in | humidity % | barometer mb |
| 20260905080034 | 51 | 145 | 1.0 | 3.0 | 0.00 | 0.04 | 0.00 | 96 | 1018.3 |
| 20260905074536 | 51 | 123 | 2.0 | 4.0 | 0.00 | 0.04 | 0.00 | 95 | 1018.1 |
| 20260905071534 | 52 | 192 | 0.0 | 3.0 | 0.00 | 0.04 | 0.00 | 94 | 1018.1 |
| 20260905070032 | 52 | 188 | 0.0 | 2.0 | 0.00 | 0.04 | 0.00 | 93 | 1017.9 |
| 20260905064534 | 53 | 151 | 0.0 | 2.0 | 0.02 | 0.04 | 0.04 | 92 | 1017.7 |
| 20260905063035 | 53 | 128 | 1.0 | 5.0 | 0.02 | 0.04 | 0.04 | 91 | 1017.6 |
| 20260905061532 | 53 | 173 | 4.0 | 8.0 | 0.02 | 0.04 | 0.04 | 88 | 1017.7 |
| 20260905054536 | 53 | 176 | 2.0 | 5.0 | 0.00 | 0.02 | 0.02 | 88 | 1017.8 |
| 20260905053036 | 53 | 173 | 2.0 | 4.0 | 0.00 | 0.02 | 0.02 | 90 | 1017.6 |
| 20260905050110 | 53 | 180 | 1.0 | 2.0 | 0.00 | 0.02 | 0.02 | 89 | 1017.7 |
| 20260905044537 | 53 | 180 | 0.0 | 1.0 | 0.00 | 0.02 | 0.02 | 89 | 1017.7 |
| 20260905041536 | 52 | 180 | 0.0 | 0.0 | 0.00 | 0.02 | 0.02 | 93 | 1017.5 |
| 20260905040032 | 52 | 180 | 0.0 | 1.0 | 0.00 | 0.02 | 0.02 | 92 | 1017.4 |
| 20260905034611 | 53 | 180 | 1.0 | 3.0 | 0.00 | 0.02 | 0.02 | 91 | 1017.2 |
| 20260905033036 | 53 | 180 | 0.0 | 2.0 | 0.00 | 0.02 | 0.02 | 90 | 1017.0 |
| 20260905031535 | 54 | 180 | 0.0 | 4.0 | 0.00 | 0.02 | 0.02 | 89 | 1016.9 |
| 20260905030036 | 55 | 180 | 3.0 | 4.0 | 0.00 | 0.02 | 0.02 | 88 | 1016.8 |
| 20260905024536 | 56 | 180 | 2.0 | 4.0 | 0.00 | 0.02 | 0.02 | 85 | 1016.8 |
| 20260905023038 | 58 | 177 | 2.0 | 4.0 | 0.00 | 0.02 | 0.02 | 81 | 1016.9 |
| 20260905021532 | 59 | 46 | 0.0 | 2.0 | 0.00 | 0.02 | 0.02 | 74 | 1016.9 |
| 20260905020111 | 60 | 42 | 2.0 | 5.0 | 0.00 | 0.02 | 0.02 | 73 | 1016.7 |
| 20260905014537 | 60 | 45 | 2.0 | 5.0 | 0.00 | 0.02 | 0.02 | 73 | 1016.5 |
| 20260905013034 | 61 | 45 | 1.0 | 4.0 | 0.00 | 0.02 | 0.02 | 71 | 1016.4 |
| 20260905011534 | 62 | 41 | 1.0 | 5.0 | 0.00 | 0.02 | 0.02 | 70 | 1016.3 |
| 20260905010110 | 62 | 26 | 2.0 | 5.0 | 0.00 | 0.02 | 0.02 | 69 | 1016.3 |
| 20260905004536 | 63 | 18 | 3.0 | 7.0 | 0.00 | 0.02 | 0.02 | 68 | 1016.2 |
| 20260905003153 | 63 | 358 | 2.0 | 4.0 | 0.00 | 0.02 | 0.02 | 69 | 1015.9 |
| 20260905001536 | 63 | 333 | 1.0 | 3.0 | 0.00 | 0.02 | 0.02 | 66 | 1015.9 |
| 20260905000035 | 63 | 180 | 0.0 | 0.0 | 0.00 | 0.02 | 0.02 | 66 | 1015.9 |
| 20260904234536 | 63 | 180 | 0.0 | 1.0 | 0.00 | 0.02 | 0.02 | 66 | 1015.9 |
| 20260904233035 | 62 | 126 | 0.0 | 3.0 | 0.00 | 0.02 | 0.02 | 70 | 1015.9 |
| 20260904230036 | 60 | 172 | 1.0 | 4.0 | 0.00 | 0.02 | 0.02 | 75 | 1015.9 |
| 20260904224537 | 60 | 220 | 2.0 | 6.0 | 0.00 | 0.02 | 0.02 | 72 | 1015.9 |
| 20260904223035 | 61 | 222 | 4.0 | 8.0 | 0.00 | 0.02 | 0.02 | 70 | 1015.8 |
| 20260904221537 | 62 | 246 | 1.0 | 5.0 | 0.00 | 0.02 | 0.02 | 66 | 1015.8 |
| 20260904220036 | 62 | 281 | 0.0 | 4.0 | 0.00 | 0.02 | 0.02 | 68 | 1015.7 |
| 20260904214535 | 61 | 254 | 2.0 | 4.0 | 0.00 | 0.02 | 0.02 | 68 | 1015.6 |
| 20260904213036 | 61 | 302 | 1.0 | 5.0 | 0.00 | 0.02 | 0.02 | 70 | 1015.5 |
| 20260904211535 | 61 | 305 | 2.0 | 5.0 | 0.00 | 0.02 | 0.02 | 71 | 1015.5 |
| 20260904210034 | 61 | 329 | 2.0 | 5.0 | 0.00 | 0.02 | 0.02 | 70 | 1015.4 |
| 20260904204536 | 61 | 312 | 1.0 | 5.0 | 0.00 | 0.02 | 0.02 | 71 | 1015.4 |
| 20260904203034 | 60 | 301 | 1.0 | 3.0 | 0.00 | 0.02 | 0.02 | 71 | 1015.5 |
| 20260904201534 | 60 | 335 | 1.0 | 4.0 | 0.00 | 0.02 | 0.02 | 72 | 1015.6 |
| 20260904194536 | 58 | 324 | 2.0 | 5.0 | 0.00 | 0.02 | 0.02 | 75 | 1015.7 |
| 20260904193055 | 59 | 314 | 2.0 | 4.0 | 0.00 | 0.02 | 0.02 | 75 | 1015.8 |
| 20260904191536 | 60 | 348 | 2.0 | 4.0 | 0.00 | 0.02 | 0.02 | 75 | 1015.8 |
| 20260904190031 | 59 | 158 | 0.0 | 4.0 | 0.00 | 0.02 | 0.02 | 77 | 1015.9 |
| 20260904184535 | 57 | 259 | 1.0 | 4.0 | 0.00 | 0.02 | 0.02 | 80 | 1016.0 |
| 20260904183152 | 57 | 323 | 1.0 | 4.0 | 0.00 | 0.02 | 0.02 | 81 | 1015.9 |
| 20260904181537 | 56 | 323 | 0.0 | 5.0 | 0.00 | 0.02 | 0.02 | 83 | 1015.8 |
| 20260904180034 | 54 | 315 | 0.0 | 1.0 | 0.00 | 0.02 | 0.02 | 86 | 1015.8 |
| 20260904173036 | 53 | 315 | 1.0 | 3.0 | 0.00 | 0.02 | 0.02 | 85 | 1015.8 |
| 20260904171532 | 54 | 282 | 1.0 | 4.0 | 0.00 | 0.02 | 0.02 | 84 | 1015.8 |
| 20260904170035 | 54 | 290 | 2.0 | 5.0 | 0.00 | 0.02 | 0.02 | 86 | 1015.7 |
| 20260904160034 | 53 | 67 | 1.0 | 4.0 | 0.00 | 0.02 | 0.02 | 90 | 1015.6 |
| 20260904153154 | 50 | 135 | 0.0 | 0.0 | 0.00 | 0.02 | 0.02 | 98 | 1015.4 |
| 20260904151534 | 50 | 135 | 0.0 | 0.0 | 0.00 | 0.02 | 0.02 | 98 | 1015.2 |
| 20260904150034 | 49 | 135 | 0.0 | 0.0 | 0.00 | 0.02 | 0.02 | 98 | 1015.0 |
| 20260904143035 | 49 | 135 | 0.0 | 0.0 | 0.00 | 0.02 | 0.02 | 98 | 1014.8 |
| 20260904141536 | 49 | 108 | 0.0 | 2.0 | 0.00 | 0.02 | 0.02 | 98 | 1014.6 |
| 20260904140037 | 48 | 45 | 0.0 | 2.0 | 0.00 | 0.02 | 0.02 | 98 | 1014.5 |
| 20260904134535 | 48 | 45 | 1.0 | 3.0 | 0.00 | 0.02 | 0.02 | 98 | 1014.4 |
| 20260904133037 | 48 | 45 | 0.0 | 0.0 | 0.00 | 0.02 | 0.02 | 98 | 1014.1 |
| 20260904130035 | 49 | 45 | 0.0 | 0.0 | 0.02 | 0.02 | 0.02 | 98 | 1013.9 |
| 20260904124531 | 48 | 45 | 0.0 | 2.0 | 0.02 | 0.02 | 0.00 | 97 | 1013.9 |
| 20260904120034 | 49 | 45 | 0.0 | 0.0 | 0.00 | 0.00 | 0.00 | 97 | 1013.7 |
| 20260904114536 | 49 | 45 | 0.0 | 0.0 | 0.00 | 0.00 | 0.00 | 97 | 1013.6 |
| 20260904113033 | 49 | 45 | 0.0 | 0.0 | 0.00 | 0.00 | 0.00 | 97 | 1013.5 |
| 20260904111532 | 49 | 45 | 0.0 | 1.0 | 0.00 | 0.00 | 0.00 | 97 | 1013.4 |
| 20260904110034 | 49 | 98 | 1.0 | 2.0 | 0.00 | 0.00 | 0.00 | 97 | 1013.2 |
| 20260904104611 | 49 | 157 | 0.0 | 1.0 | 0.00 | 0.00 | 0.00 | 97 | 1013.2 |
| 20260904103035 | 49 | 89 | 0.0 | 2.0 | 0.00 | 0.00 | 0.00 | 97 | 1013.1 |
| 20260904101532 | 49 | 72 | 1.0 | 2.0 | 0.00 | 0.00 | 0.00 | 97 | 1012.9 |
| 20260904100034 | 48 | 180 | 0.0 | 1.0 | 0.00 | 0.00 | 0.00 | 97 | 1012.7 |
| 20260904094531 | 48 | 180 | 2.0 | 2.0 | 0.00 | 0.00 | 0.00 | 97 | 1012.7 |
| 20260904091532 | 47 | 180 | 1.0 | 3.0 | 0.00 | 0.00 | 0.00 | 97 | 1012.7 |
| 20260904090035 | 47 | 180 | 2.0 | 4.0 | 0.00 | 0.00 | 0.00 | 96 | 1012.6 |
| 20260904084531 | 48 | 165 | 1.0 | 3.0 | 0.00 | 0.00 | 0.00 | 96 | 1012.6 |
| 20260904083036 | 48 | 135 | 0.0 | 0.0 | 0.00 | 0.00 | 0.00 | 96 | 1012.4 |
| 20260904081536 | 49 | 135 | 0.0 | 2.0 | 0.00 | 0.00 | 0.00 | 96 | 1012.5 |